Location: Bothwell
(42.3833°S, 147.0000°E)
Time: 14:14:56
(UTC+11:00)

STARS - Visible Passes

Search period start: 27 February 2024 00:00
Search period end: 08 March 2024 00:00
Orbit: 608 x 624 km, 98.1° (Epoch: 26 February)

Date Brightness Start Highest point End Pass type
(mag) Time Alt. Az. Time Alt. Az. Time Alt. Az.
27 Feb ? 00:16:35 18° S 00:16:35 18° S 00:17:44 10° S visible
27 Feb ? 22:55:49 10° SE 22:55:49 10° SE 22:55:56 10° SSE visible
28 Feb ? 00:32:54 15° SSW 00:32:54 15° SSW 00:33:44 10° SSW visible
28 Feb ? 23:12:06 13° SSE 23:12:06 13° SSE 23:12:45 10° SSE visible
29 Feb ? 00:49:12 12° SSW 00:49:12 12° SSW 00:49:37 10° SSW visible
29 Feb ? 23:28:24 14° SSE 23:28:24 14° SSE 23:29:13 10° SSE visible
01 Mar ? 23:44:40 15° S 23:44:40 15° S 23:45:30 10° S visible
03 Mar ? 00:00:56 14° S 00:00:56 14° S 00:01:40 10° S visible
04 Mar ? 00:17:12 13° S 00:17:12 13° S 00:17:42 10° S visible
05 Mar ? 00:33:27 11° SSW 00:33:27 11° SSW 00:33:39 10° SSW visible
06 Mar ? 23:28:50 11° SSE 23:28:50 11° SSE 23:28:59 10° SSE visible
07 Mar ? 23:45:03 11° S 23:45:03 11° S 23:45:13 10° S visible
